TimeMST,TemperatureF,Dew PointF,Humidity,Sea Level PressureIn,VisibilityMPH,Wind Direction,Wind SpeedMPH,Gust SpeedMPH,PrecipitationIn,Events,Conditions,WindDirDegrees,DateUTC
12:53 AM,33.1,28.9,85,30.21,10.0,SE,3.5,-,N/A,,Clear,140,2013-01-01 07:53:00
1:53 AM,32.0,28.9,88,30.22,10.0,SSE,5.8,-,N/A,,Clear,160,2013-01-01 08:53:00
2:53 AM,32.0,28.9,88,30.23,10.0,SE,4.6,-,N/A,,Partly Cloudy,140,2013-01-01 09:53:00
3:53 AM,32.0,28.0,85,30.22,10.0,Calm,Calm,-,N/A,,Clear,0,2013-01-01 10:53:00
4:53 AM,30.9,28.0,89,30.21,10.0,SE,6.9,-,N/A,,Clear,130,2013-01-01 11:53:00
5:53 AM,30.9,27.0,85,30.22,10.0,SSE,8.1,-,N/A,,Clear,150,2013-01-01 12:53:00
6:53 AM,30.0,27.0,88,30.23,10.0,SE,4.6,-,N/A,,Clear,140,2013-01-01 13:53:00
7:53 AM,32.0,27.0,82,30.23,10.0,SE,6.9,-,N/A,,Clear,130,2013-01-01 14:53:00
8:53 AM,34.0,28.0,79,30.24,10.0,SSE,3.5,-,N/A,,Clear,160,2013-01-01 15:53:00
9:53 AM,37.9,28.9,70,30.24,10.0,Calm,Calm,-,N/A,,Clear,0,2013-01-01 16:53:00
10:53 AM,43.0,30.0,60,30.25,10.0,Calm,Calm,-,N/A,,Clear,0,2013-01-01 17:53:00
11:53 AM,48.9,26.1,41,30.18,10.0,Variable,6.9,-,N/A,,Clear,0,2013-01-01 18:53:00
12:53 PM,48.9,24.1,38,30.14,10.0,Variable,4.6,-,N/A,,Clear,0,2013-01-01 19:53:00
1:53 PM,50.0,23.0,35,30.11,10.0,Calm,Calm,-,N/A,,Clear,0,2013-01-01 20:53:00
2:53 PM,52.0,23.0,32,30.10,10.0,Calm,Calm,-,N/A,,Clear,0,2013-01-01 21:53:00
3:53 PM,53.1,21.9,30,30.10,10.0,North,4.6,-,N/A,,Clear,10,2013-01-01 22:53:00
4:53 PM,51.1,21.0,31,30.09,10.0,North,3.5,-,N/A,,Clear,10,2013-01-01 23:53:00
5:53 PM,48.0,27.0,44,30.09,10.0,NNW,4.6,-,N/A,,Clear,340,2013-01-02 00:53:00
6:53 PM,46.0,28.0,50,30.12,10.0,NNW,3.5,-,N/A,,Clear,330,2013-01-02 01:53:00
7:53 PM,42.1,28.9,60,30.12,10.0,West,3.5,-,N/A,,Clear,270,2013-01-02 02:53:00
8:53 PM,39.9,30.0,68,30.14,10.0,South,4.6,-,N/A,,Clear,170,2013-01-02 03:53:00
9:53 PM,39.0,28.0,65,30.13,10.0,West,4.6,-,N/A,,Clear,260,2013-01-02 04:53:00
10:53 PM,37.9,28.9,70,30.13,10.0,Calm,Calm,-,N/A,,Clear,0,2013-01-02 05:53:00
11:53 PM,39.0,28.0,65,30.11,10.0,Calm,Calm,-,N/A,,Clear,0,2013-01-02 06:53:00